Other Public Products
Issued by NWS Charleston, SC

Current Version | Previous Version | Graphics & Text | Print | Product List | Glossary On
Versions: 1 2 3 4 5 6 7 8 9 10 11 12 13 14 15 16 17 18 19 20 21 22 23 24 25 26 27 28 29 30 31 32 33 34 35 36 37 38 39 40 41 42 43 44 45 46 47 48 49 50
845 FPUS82 KCHS 231312 OPUCHS TEST...KCHS/KSAV Gateway Observations...TEST National Weather Service Charleston SC 800 AM EST FRI FEB 23 2018 NOTE: "fair" indicates few or no clouds below 12,000 feet with no significant weather and/or obstructions to visibility. SCZ050-WAZ558-NCZ071-TXZ119-213-PAZ071-DCZ001-FLZ074-172-MI076- NYZ176-178-MAZ016-IL014-TNZ027-NJZ106-GAZ044-MD014-231400- ...Gateway Observations for Charleston International... CITY SKY/WX TMP DP RH WIND PRES REMARKS Chas Airport FAIR 63 62 97 CALM 30.45R Seattle CLEAR 24 19 81 SE9 30.44S WCI 14 Charlotte PTSUNNY 63 61 93 S8 30.45R Dallas DFW CLOUDY 42 39 89 NE3 30.20S FOG Dallas Love CLOUDY 41 39 93 NW5 30.22S Philladelphia LGT RAIN 38 35 89 NE5 30.62R WCI 34 Wash National LGT RAIN 42 40 92 E7 30.60R FOG Baltimore RAIN 39 39 100 E9 30.59R VSB 1 WCI 33 Miami PTSUNNY 75 67 76 E18 30.32R Detroit LGT RAIN 37 36 96 SE6 30.19F VSB 1 WCI 32 Newark CLOUDY 38 32 79 E7 30.64S WCI 33 Laguardia CLOUDY 38 32 79 E12 30.65R WCI 30 J F K CLOUDY 37 32 82 NE13 30.66R WCI 29 Boston Logan PTSUNNY 33 29 85 N5 30.71R WCI 29 Ft. Lauderdale PTSUNNY 76 69 79 E15 30.32R Chicago O`Hare DRIZZLE 41 39 93 S7 30.08F FOG Chicago Midway CLOUDY 41 41 100 S8 30.09S FOG Houston Bush FOG 60 60 100 CALM 30.18R VSB 1/8 Houston Hobby MOCLDY 63 63 100 CALM 30.17R FOG Nashville MOCLDY 61 58 90 SE5 30.30R Atlanta FAIR 60 60 100 SE3 30.40R $$ GAZ044-118-TXZ119-213-NCZ071-DCZ001-MDZ014-506-PAZ021-071-NJZ106- NYZ176-178-MAZ106-OHZ011-021-055-MIZ076-KYZ091-ILZ014-INZ047- MNZ060-ONZ431-231400- ...Gateway Observations for Savannah International... CITY SKY/WX TMP DP RH WIND PRES REMARKS Savannah Arpt FOG 61 61 100 CALM 30.44S VSB 1/4 Atlanta FAIR 60 60 100 SE3 30.40R Charlotte PTSUNNY 63 61 93 S8 30.45R Dallas DFW CLOUDY 42 39 89 NE3 30.20S FOG Houston Bush FOG 60 60 100 CALM 30.18R VSB 1/8 Wash National LGT RAIN 42 40 92 E7 30.60R FOG Wash Dulles LGT RAIN 40 40 100 E6 30.57S WCI 36 Baltimore RAIN 39 39 100 E9 30.59R VSB 1 WCI 33 Philadelphia LGT RAIN 38 35 89 NE5 30.62R WCI 34 Newark CLOUDY 38 32 79 E7 30.64S WCI 33 Laguardia CLOUDY 38 32 79 E12 30.65R WCI 30 J F K CLOUDY 37 32 82 NE13 30.66R WCI 29 Boston PTSUNNY 33 29 85 N5 30.71R WCI 29 Pittsburg LGT RAIN 44 43 96 SE8 30.28F FOG Akron LGT RAIN 44 42 93 E7 30.26R VSB 1/4 Cleveland CLOUDY 44 43 96 S13 30.24F FOG Cincinnati CLOUDY 54 54 100 SW10 30.21S FOG Columbus LGT RAIN 45 45 100 SE6 30.24F Detroit LGT RAIN 37 36 96 SE6 30.19F VSB 1 WCI 32 Chicago O`Hare DRIZZLE 41 39 93 S7 30.08F FOG Minneapolis CLOUDY 27 26 96 W10 30.07R WCI 17 Indianapolis CLOUDY 51 51 100 S12 30.14R Toronto Canada DRIZZLE 34 30 86 E10G17 30.31F FOG WCI 26 $$

USA.gov is the U.S. government's official web portal to all federal, state and local government web resources and services.